| time (UTC) | temp C | wind direction | speed KPH | gust KPH | rain 1hr cm | rain 24hr cm | rain mn cm | humidity % | barometer mb |
| 20260507021045 | 13 | 20 | 1.6 | 1.6 | 0.00 | 0.13 | 0.13 | 99 | 1004.7 |
| 20260507020544 | 13 | 20 | 1.6 | 1.6 | 0.00 | 0.13 | 0.13 | 99 | 1004.6 |
| 20260507020039 | 13 | 34 | 0.0 | 1.6 | 0.00 | 0.13 | 0.13 | 99 | 1004.6 |
| 20260507015538 | 13 | 69 | 0.0 | 1.6 | 0.00 | 0.13 | 0.13 | 99 | 1004.6 |
| 20260507015035 | 13 | 31 | 0.0 | 0.0 | 0.00 | 0.13 | 0.13 | 99 | 1004.9 |
| 20260507014532 | 13 | 17 | 0.0 | 0.0 | 0.00 | 0.13 | 0.13 | 99 | 1004.8 |
| 20260507014027 | 13 | 33 | 0.0 | 0.0 | 0.00 | 0.13 | 0.13 | 99 | 1004.8 |
| 20260507013524 | 13 | 21 | 0.0 | 0.0 | 0.00 | 0.13 | 0.13 | 99 | 1004.8 |
| 20260507013022 | 13 | 37 | 0.0 | 0.0 | 0.00 | 0.13 | 0.13 | 99 | 1004.8 |
| 20260507012519 | 13 | 60 | 1.6 | 1.6 | 0.00 | 0.13 | 0.13 | 99 | 1004.9 |
| 20260507012015 | 13 | 7 | 1.6 | 3.2 | 0.00 | 0.13 | 0.13 | 99 | 1005.1 |
| 20260507011513 | 13 | 31 | 0.0 | 0.0 | 0.00 | 0.13 | 0.13 | 99 | 1005.1 |
| 20260507011008 | 13 | 43 | 0.0 | 0.0 | 0.00 | 0.13 | 0.13 | 99 | 1005.0 |
| 20260507010503 | 13 | 42 | 0.0 | 0.0 | 0.00 | 0.13 | 0.13 | 99 | 1005.0 |
| 20260507010000 | 13 | 50 | 0.0 | 0.0 | 0.00 | 0.13 | 0.13 | 99 | 1005.2 |
| 20260507005457 | 13 | 87 | 0.0 | 1.6 | 0.00 | 0.13 | 0.13 | 99 | 1005.2 |
| 20260507004953 | 13 | 25 | 0.0 | 1.6 | 0.00 | 0.13 | 0.13 | 99 | 1005.2 |
| 20260507004450 | 13 | 77 | 1.6 | 3.2 | 0.00 | 0.13 | 0.13 | 99 | 1005.2 |
| 20260507003948 | 13 | 358 | 3.2 | 4.8 | 0.00 | 0.13 | 0.13 | 99 | 1005.2 |
| 20260507003443 | 13 | 73 | 1.6 | 1.6 | 0.00 | 0.13 | 0.13 | 99 | 1005.0 |
| 20260507002938 | 13 | 57 | 1.6 | 3.2 | 0.00 | 0.13 | 0.13 | 99 | 1005.1 |
| 20260507002435 | 13 | 70 | 1.6 | 1.6 | 0.00 | 0.13 | 0.13 | 99 | 1005.0 |
| 20260507001932 | 13 | 262 | 1.6 | 1.6 | 0.00 | 0.13 | 0.13 | 99 | 1004.9 |
| 20260507001428 | 13 | 60 | 1.6 | 1.6 | 0.00 | 0.13 | 0.13 | 99 | 1005.1 |
| 20260507000926 | 13 | 40 | 0.0 | 0.0 | 0.00 | 0.13 | 0.13 | 99 | 1005.0 |
| 20260507000421 | 13 | 31 | 0.0 | 0.0 | 0.00 | 0.13 | 0.13 | 99 | 1005.0 |
| 20260506235917 | 13 | 45 | 1.6 | 1.6 | 0.00 | 0.13 | 0.13 | 99 | 1005.1 |
| 20260506235415 | 13 | 93 | 1.6 | 1.6 | 0.00 | 0.13 | 0.13 | 99 | 1005.0 |
| 20260506234910 | 13 | 42 | 0.0 | 1.6 | 0.00 | 0.13 | 0.13 | 99 | 1004.8 |
| 20260506234408 | 13 | 358 | 1.6 | 3.2 | 0.00 | 0.13 | 0.13 | 99 | 1004.8 |
| 20260506233906 | 13 | 27 | 0.0 | 0.0 | 0.00 | 0.13 | 0.13 | 99 | 1004.8 |
| 20260506233401 | 13 | 77 | 0.0 | 1.6 | 0.00 | 0.13 | 0.13 | 99 | 1004.9 |
| 20260506232858 | 13 | 26 | 0.0 | 1.6 | 0.00 | 0.13 | 0.13 | 99 | 1004.9 |
| 20260506232354 | 13 | 92 | 3.2 | 3.2 | 0.00 | 0.13 | 0.13 | 99 | 1004.8 |
| 20260506231850 | 13 | 245 | 1.6 | 3.2 | 0.00 | 0.13 | 0.13 | 99 | 1005.0 |
| 20260506231348 | 13 | 28 | 0.0 | 0.0 | 0.00 | 0.13 | 0.13 | 99 | 1005.0 |
| 20260506230846 | 13 | 25 | 0.0 | 1.6 | 0.00 | 0.13 | 0.13 | 99 | 1004.8 |
| 20260506230342 | 13 | 205 | 3.2 | 3.2 | 0.18 | 0.13 | 0.13 | 99 | 1004.8 |
| 20260506225838 | 13 | 96 | 3.2 | 3.2 | 0.18 | 0.13 | 0.13 | 99 | 1004.9 |
| 20260506225336 | 13 | 12 | 1.6 | 3.2 | 0.00 | 0.10 | 0.10 | 99 | 1004.9 |
| 20260506224833 | 13 | 14 | 0.0 | 0.0 | 0.00 | 0.10 | 0.10 | 99 | 1004.9 |
| 20260506224330 | 13 | 36 | 0.0 | 0.0 | 0.00 | 0.10 | 0.10 | 99 | 1004.9 |
| 20260506223826 | 13 | 60 | 1.6 | 1.6 | 0.00 | 0.10 | 0.10 | 99 | 1004.8 |
| 20260506223321 | 14 | 334 | 1.6 | 3.2 | 0.00 | 0.10 | 0.10 | 99 | 1004.6 |
| 20260506222819 | 14 | 74 | 1.6 | 1.6 | 0.00 | 0.10 | 0.10 | 99 | 1004.7 |
| 20260506222314 | 14 | 137 | 4.8 | 4.8 | 0.13 | 0.10 | 0.10 | 99 | 1004.8 |
| 20260506221813 | 14 | 57 | 0.0 | 1.6 | 0.13 | 0.10 | 0.10 | 99 | 1004.7 |
| 20260506221310 | 14 | 50 | 4.8 | 4.8 | 0.00 | 0.08 | 0.08 | 99 | 1004.8 |
| 20260506220807 | 14 | 328 | 1.6 | 1.6 | 0.00 | 0.08 | 0.08 | 99 | 1005.2 |
| 20260506220302 | 14 | 330 | 1.6 | 3.2 | 0.00 | 0.08 | 0.08 | 98 | 1005.0 |
| 20260506215759 | 15 | 24 | 3.2 | 3.2 | 0.00 | 0.08 | 0.08 | 98 | 1005.2 |
| 20260506215255 | 15 | 65 | 4.8 | 4.8 | 0.18 | 0.08 | 0.08 | 97 | 1005.2 |
| 20260506214751 | 15 | 335 | 1.6 | 3.2 | 0.18 | 0.08 | 0.08 | 97 | 1005.3 |
| 20260506214248 | 15 | 12 | 0.0 | 0.0 | 0.00 | 0.05 | 0.05 | 97 | 1005.1 |
| 20260506213746 | 15 | 61 | 1.6 | 1.6 | 0.00 | 0.05 | 0.05 | 96 | 1005.2 |
| 20260506213243 | 15 | 344 | 0.0 | 1.6 | 0.00 | 0.05 | 0.05 | 95 | 1005.3 |
| 20260506212740 | 15 | 314 | 3.2 | 3.2 | 0.00 | 0.05 | 0.05 | 95 | 1005.2 |
| 20260506212236 | 15 | 21 | 1.6 | 1.6 | 0.00 | 0.05 | 0.05 | 94 | 1005.4 |
| 20260506211731 | 15 | 298 | 6.4 | 9.7 | 0.00 | 0.05 | 0.05 | 94 | 1005.3 |
| 20260506211228 | 15 | 250 | 3.2 | 4.8 | 0.00 | 0.05 | 0.05 | 94 | 1005.4 |
| 20260506210725 | 15 | 91 | 3.2 | 4.8 | 0.00 | 0.05 | 0.05 | 94 | 1005.6 |
| 20260506210222 | 15 | 21 | 0.0 | 1.6 | 0.00 | 0.05 | 0.05 | 95 | 1005.4 |
| 20260506205719 | 15 | 29 | 3.2 | 3.2 | 0.00 | 0.05 | 0.05 | 95 | 1005.6 |
| 20260506205214 | 15 | 56 | 0.0 | 1.6 | 0.00 | 0.05 | 0.05 | 95 | 1005.5 |
| 20260506204712 | 15 | 336 | 1.6 | 4.8 | 0.13 | 0.05 | 0.05 | 95 | 1005.5 |
| 20260506204209 | 15 | 293 | 0.0 | 1.6 | 0.13 | 0.05 | 0.05 | 95 | 1005.7 |
| 20260506203707 | 15 | 69 | 1.6 | 3.2 | 0.00 | 0.03 | 0.03 | 95 | 1006.1 |
| 20260506203203 | 15 | 43 | 1.6 | 1.6 | 0.00 | 0.03 | 0.03 | 95 | 1005.7 |
| 20260506202702 | 15 | 25 | 0.0 | 0.0 | 0.00 | 0.03 | 0.03 | 94 | 1005.7 |
| 20260506202157 | 15 | 80 | 3.2 | 4.8 | 0.00 | 0.03 | 0.03 | 94 | 1005.8 |
| 20260506201654 | 15 | 18 | 3.2 | 4.8 | 0.00 | 0.03 | 0.03 | 94 | 1005.7 |
| 20260506201150 | 15 | 67 | 1.6 | 1.6 | 0.00 | 0.03 | 0.03 | 94 | 1005.8 |
| 20260506200648 | 15 | 125 | 3.2 | 4.8 | 0.00 | 0.03 | 0.03 | 93 | 1005.9 |
| 20260506200144 | 15 | 295 | 6.4 | 8.0 | 0.00 | 0.03 | 0.03 | 93 | 1006.1 |
| 20260506195641 | 15 | 207 | 4.8 | 8.0 | 0.00 | 0.03 | 0.03 | 93 | 1005.8 |
| 20260506195137 | 16 | 167 | 3.2 | 4.8 | 0.00 | 0.03 | 0.03 | 92 | 1005.8 |
| 20260506194635 | 16 | 351 | 1.6 | 1.6 | 0.00 | 0.03 | 0.03 | 92 | 1005.6 |
| 20260506194131 | 16 | 57 | 1.6 | 3.2 | 0.18 | 0.03 | 0.03 | 91 | 1006.1 |
| 20260506193629 | 16 | 108 | 1.6 | 3.2 | 0.18 | 0.03 | 0.03 | 90 | 1005.9 |
| 20260506193126 | 16 | 61 | 1.6 | 1.6 | 0.00 | 0.00 | 0.00 | 89 | 1006.2 |
| 20260506192622 | 16 | 80 | 3.2 | 3.2 | 0.00 | 0.00 | 0.00 | 87 | 1006.1 |
| 20260506192118 | 16 | 56 | 1.6 | 1.6 | 0.00 | 0.00 | 0.00 | 85 | 1006.2 |
| 20260506191615 | 17 | 215 | 1.6 | 3.2 | 0.00 | 0.00 | 0.00 | 85 | 1006.2 |
| 20260506191111 | 17 | 11 | 4.8 | 4.8 | 0.00 | 0.00 | 0.00 | 83 | 1006.2 |
| 20260506190609 | 17 | 82 | 1.6 | 3.2 | 0.00 | 0.00 | 0.00 | 83 | 1006.3 |
| 20260506190105 | 17 | 70 | 3.2 | 3.2 | 0.00 | 0.00 | 0.00 | 80 | 1006.3 |
| 20260506185603 | 17 | 72 | 3.2 | 3.2 | 0.00 | 0.00 | 0.00 | 78 | 1006.2 |
| 20260506185059 | 17 | 55 | 4.8 | 11.3 | 0.00 | 0.00 | 0.00 | 77 | 1006.5 |
| 20260506184556 | 18 | 82 | 3.2 | 4.8 | 0.00 | 0.00 | 0.00 | 77 | 1006.3 |
| 20260506184054 | 18 | 11 | 4.8 | 8.0 | 0.00 | 0.00 | 0.00 | 76 | 1006.2 |
| 20260506183549 | 18 | 108 | 3.2 | 3.2 | 0.00 | 0.00 | 0.00 | 75 | 1006.3 |
| 20260506183046 | 18 | 193 | 1.6 | 3.2 | 0.00 | 0.00 | 0.00 | 76 | 1006.5 |
| 20260506182544 | 18 | 307 | 6.4 | 9.7 | 0.00 | 0.00 | 0.00 | 74 | 1006.6 |
| 20260506182041 | 18 | 231 | 4.8 | 4.8 | 0.00 | 0.00 | 0.00 | 74 | 1006.5 |
| 20260506181539 | 18 | 77 | 1.6 | 1.6 | 0.00 | 0.00 | 0.00 | 73 | 1006.4 |
| 20260506181035 | 18 | 70 | 1.6 | 1.6 | 0.00 | 0.00 | 0.00 | 74 | 1006.6 |
| 20260506180532 | 19 | 212 | 4.8 | 4.8 | 0.00 | 0.00 | 0.00 | 72 | 1006.2 |
| 20260506180028 | 19 | 322 | 1.6 | 3.2 | 0.00 | 0.00 | 0.00 | 72 | 1006.6 |
| 20260506175525 | 19 | 331 | 3.2 | 3.2 | 0.00 | 0.00 | 0.00 | 72 | 1006.6 |
| 20260506175021 | 20 | 136 | 3.2 | 4.8 | 0.00 | 0.00 | 0.00 | 71 | 1006.7 |
| 20260506174520 | 20 | 7 | 4.8 | 4.8 | 0.00 | 0.00 | 0.00 | 70 | 1006.6 |
| 20260506174016 | 20 | 16 | 4.8 | 8.0 | 0.00 | 0.00 | 0.00 | 70 | 1006.7 |
| 20260506173514 | 20 | 102 | 4.8 | 9.7 | 0.00 | 0.00 | 0.00 | 69 | 1006.9 |
| 20260506173010 | 20 | 48 | 3.2 | 3.2 | 0.00 | 0.00 | 0.00 | 68 | 1006.8 |
| 20260506172508 | 20 | 273 | 3.2 | 4.8 | 0.00 | 0.00 | 0.00 | 69 | 1007.0 |
| 20260506172004 | 21 | 52 | 6.4 | 8.0 | 0.00 | 0.00 | 0.00 | 67 | 1006.9 |
| 20260506171501 | 21 | 246 | 3.2 | 4.8 | 0.00 | 0.00 | 0.00 | 66 | 1007.1 |
| 20260506170959 | 21 | 264 | 4.8 | 8.0 | 0.00 | 0.00 | 0.00 | 68 | 1006.9 |
| 20260506170455 | 21 | 72 | 4.8 | 8.0 | 0.00 | 0.00 | 0.00 | 67 | 1006.8 |
| 20260506165948 | 21 | 106 | 4.8 | 4.8 | 0.00 | 0.00 | 0.00 | 64 | 1006.8 |
| 20260506165447 | 22 | 20 | 4.8 | 8.0 | 0.00 | 0.00 | 0.00 | 65 | 1006.8 |
| 20260506164942 | 22 | 304 | 4.8 | 8.0 | 0.00 | 0.00 | 0.00 | 63 | 1006.8 |
| 20260506164439 | 21 | 173 | 4.8 | 8.0 | 0.00 | 0.00 | 0.00 | 66 | 1007.0 |
| 20260506163937 | 21 | 83 | 6.4 | 8.0 | 0.00 | 0.00 | 0.00 | 66 | 1007.2 |
| 20260506163431 | 21 | 64 | 3.2 | 4.8 | 0.00 | 0.00 | 0.00 | 66 | 1007.4 |
| 20260506162926 | 21 | 10 | 1.6 | 3.2 | 0.00 | 0.00 | 0.00 | 66 | 1007.3 |
| 20260506162424 | 21 | 271 | 6.4 | 9.7 | 0.00 | 0.00 | 0.00 | 66 | 1007.6 |
| 20260506161921 | 21 | 101 | 4.8 | 8.0 | 0.00 | 0.00 | 0.00 | 64 | 1007.5 |
| 20260506161420 | 21 | 287 | 1.6 | 3.2 | 0.00 | 0.00 | 0.00 | 67 | 1007.4 |
| 20260506160911 | 21 | 166 | 4.8 | 8.0 | 0.00 | 0.00 | 0.00 | 65 | 1007.6 |
| 20260506160408 | 21 | 38 | 1.6 | 1.6 | 0.00 | 0.00 | 0.00 | 66 | 1007.7 |
| 20260506155906 | 21 | 85 | 4.8 | 8.0 | 0.00 | 0.00 | 0.00 | 66 | 1007.6 |
| 20260506155403 | 22 | 351 | 1.6 | 1.6 | 0.00 | 0.00 | 0.00 | 66 | 1007.7 |
| 20260506153525 | 22 | 62 | 4.8 | 4.8 | 0.00 | 0.00 | 0.00 | 65 | 1007.7 |
| 20260506153023 | 22 | 116 | 1.6 | 1.6 | 0.00 | 0.00 | 0.00 | 66 | 1007.9 |
| 20260506152519 | 22 | 359 | 3.2 | 4.8 | 0.00 | 0.00 | 0.00 | 64 | 1008.0 |
| 20260506152018 | 22 | 56 | 1.6 | 1.6 | 0.00 | 0.00 | 0.00 | 67 | 1008.0 |
| 20260506151515 | 22 | 220 | 6.4 | 11.3 | 0.00 | 0.00 | 0.00 | 64 | 1008.2 |
| 20260506151012 | 21 | 311 | 3.2 | 4.8 | 0.00 | 0.00 | 0.00 | 65 | 1008.2 |
| 20260506150508 | 21 | 125 | 6.4 | 9.7 | 0.00 | 0.00 | 0.00 | 67 | 1008.3 |
| 20260506150005 | 21 | 202 | 8.0 | 9.7 | 0.00 | 0.00 | 0.00 | 67 | 1008.2 |
| 20260506145502 | 21 | 76 | 1.6 | 3.2 | 0.00 | 0.00 | 0.00 | 68 | 1008.3 |
| 20260506144959 | 21 | 331 | 1.6 | 1.6 | 0.00 | 0.00 | 0.00 | 67 | 1008.2 |
| 20260506144456 | 21 | 240 | 3.2 | 3.2 | 0.00 | 0.00 | 0.00 | 70 | 1008.1 |
| 20260506143954 | 21 | 91 | 1.6 | 3.2 | 0.00 | 0.00 | 0.00 | 67 | 1008.2 |
| 20260506143451 | 21 | 65 | 1.6 | 3.2 | 0.00 | 0.00 | 0.00 | 68 | 1008.0 |
| 20260506142949 | 21 | 90 | 4.8 | 4.8 | 0.00 | 0.00 | 0.00 | 67 | 1008.2 |
| 20260506142446 | 21 | 203 | 4.8 | 4.8 | 0.00 | 0.00 | 0.00 | 68 | 1007.9 |
| 20260506141944 | 21 | 48 | 1.6 | 3.2 | 0.00 | 0.00 | 0.00 | 67 | 1007.8 |
| 20260506141442 | 21 | 65 | 3.2 | 3.2 | 0.00 | 0.00 | 0.00 | 66 | 1008.0 |
| 20260506140941 | 21 | 160 | 4.8 | 4.8 | 0.00 | 0.00 | 0.00 | 65 | 1008.2 |
| 20260506140437 | 21 | 115 | 0.0 | 1.6 | 0.00 | 0.00 | 0.00 | 66 | 1008.1 |
| 20260506135934 | 21 | 94 | 4.8 | 8.0 | 0.00 | 0.00 | 0.00 | 65 | 1008.0 |
| 20260506135431 | 21 | 83 | 4.8 | 4.8 | 0.00 | 0.00 | 0.00 | 67 | 1008.0 |
| 20260506134927 | 21 | 330 | 3.2 | 4.8 | 0.00 | 0.00 | 0.00 | 67 | 1007.8 |
| 20260506134423 | 20 | 65 | 1.6 | 3.2 | 0.00 | 0.00 | 0.00 | 68 | 1008.0 |
| 20260506133920 | 20 | 129 | 4.8 | 8.0 | 0.00 | 0.00 | 0.00 | 68 | 1008.1 |
| 20260506133417 | 21 | 10 | 3.2 | 3.2 | 0.00 | 0.00 | 0.00 | 67 | 1008.3 |
| 20260506132914 | 21 | 101 | 8.0 | 11.3 | 0.00 | 0.00 | 0.00 | 69 | 1008.6 |
| 20260506132411 | 21 | 24 | 0.0 | 1.6 | 0.00 | 0.00 | 0.00 | 72 | 1008.5 |
| 20260506131909 | 20 | 200 | 1.6 | 3.2 | 0.00 | 0.00 | 0.00 | 71 | 1008.7 |
| 20260506131405 | 20 | 255 | 4.8 | 8.0 | 0.00 | 0.00 | 0.00 | 71 | 1008.7 |
| 20260506130902 | 20 | 279 | 1.6 | 3.2 | 0.00 | 0.00 | 0.00 | 74 | 1008.8 |
| 20260506130358 | 18 | 60 | 0.0 | 1.6 | 0.00 | 0.00 | 0.00 | 75 | 1008.7 |
| 20260506125856 | 19 | 315 | 1.6 | 3.2 | 0.00 | 0.00 | 0.00 | 75 | 1008.7 |
| 20260506125355 | 19 | 71 | 1.6 | 3.2 | 0.00 | 0.00 | 0.00 | 76 | 1008.7 |
| 20260506124853 | 18 | 87 | 3.2 | 3.2 | 0.00 | 0.00 | 0.00 | 77 | 1008.8 |
| 20260506124349 | 18 | 244 | 6.4 | 11.3 | 0.00 | 0.00 | 0.00 | 77 | 1008.8 |
| 20260506123847 | 17 | 28 | 3.2 | 3.2 | 0.00 | 0.00 | 0.00 | 79 | 1008.7 |
| 20260506123345 | 17 | 32 | 0.0 | 0.0 | 0.00 | 0.00 | 0.00 | 81 | 1008.8 |
| 20260506122842 | 17 | 90 | 3.2 | 3.2 | 0.00 | 0.00 | 0.00 | 80 | 1008.8 |
| 20260506122339 | 17 | 237 | 3.2 | 3.2 | 0.00 | 0.00 | 0.00 | 80 | 1008.8 |
| 20260506121837 | 17 | 216 | 3.2 | 3.2 | 0.00 | 0.00 | 0.00 | 80 | 1008.8 |
| 20260506121334 | 17 | 91 | 3.2 | 4.8 | 0.00 | 0.00 | 0.00 | 79 | 1008.6 |
| 20260506120831 | 17 | 201 | 1.6 | 1.6 | 0.00 | 0.00 | 0.00 | 81 | 1008.8 |
| 20260506120329 | 17 | 64 | 3.2 | 3.2 | 0.00 | 0.00 | 0.00 | 82 | 1008.8 |
| 20260506115826 | 16 | 88 | 1.6 | 3.2 | 0.00 | 0.00 | 0.00 | 82 | 1009.2 |
| 20260506115324 | 16 | 76 | 1.6 | 1.6 | 0.00 | 0.00 | 0.00 | 84 | 1009.2 |
| 20260506114822 | 15 | 42 | 0.0 | 0.0 | 0.00 | 0.00 | 0.00 | 87 | 1009.3 |
| 20260506114319 | 15 | 75 | 1.6 | 1.6 | 0.00 | 0.00 | 0.00 | 87 | 1009.5 |
| 20260506113818 | 16 | 291 | 3.2 | 4.8 | 0.00 | 0.00 | 0.00 | 86 | 1009.2 |
| 20260506113315 | 16 | 286 | 4.8 | 8.0 | 0.00 | 0.00 | 0.00 | 85 | 1009.3 |
| 20260506112811 | 16 | 73 | 1.6 | 1.6 | 0.00 | 0.00 | 0.00 | 85 | 1009.5 |
| 20260506112309 | 16 | 100 | 3.2 | 3.2 | 0.00 | 0.00 | 0.00 | 85 | 1009.2 |
| 20260506111806 | 16 | 88 | 3.2 | 3.2 | 0.00 | 0.00 | 0.00 | 85 | 1009.4 |
| 20260506111304 | 15 | 92 | 1.6 | 1.6 | 0.00 | 0.00 | 0.00 | 87 | 1009.4 |
| 20260506110801 | 15 | 48 | 0.0 | 1.6 | 0.00 | 0.00 | 0.00 | 89 | 1009.2 |
| 20260506110258 | 14 | 246 | 3.2 | 4.8 | 0.00 | 0.00 | 0.00 | 91 | 1009.3 |
| 20260506105755 | 14 | 78 | 0.0 | 1.6 | 0.00 | 0.00 | 0.00 | 92 | 1009.3 |
| 20260506105252 | 13 | 72 | 0.0 | 1.6 | 0.00 | 0.00 | 0.00 | 92 | 1009.3 |
| 20260506104749 | 13 | 331 | 0.0 | 1.6 | 0.00 | 0.00 | 0.00 | 92 | 1009.2 |
| 20260506104247 | 13 | 54 | 1.6 | 1.6 | 0.00 | 0.00 | 0.00 | 92 | 1009.3 |
| 20260506103744 | 13 | 79 | 1.6 | 1.6 | 0.00 | 0.00 | 0.00 | 92 | 1009.2 |
| 20260506103241 | 13 | 60 | 0.0 | 0.0 | 0.00 | 0.00 | 0.00 | 92 | 1009.3 |
| 20260506102739 | 13 | 18 | 0.0 | 0.0 | 0.00 | 0.00 | 0.00 | 93 | 1009.1 |
| 20260506102237 | 13 | 38 | 0.0 | 0.0 | 0.00 | 0.00 | 0.00 | 93 | 1009.1 |
| 20260506101733 | 13 | 31 | 0.0 | 1.6 | 0.00 | 0.00 | 0.00 | 93 | 1009.2 |
| 20260506101230 | 13 | 90 | 0.0 | 0.0 | 0.00 | 0.00 | 0.00 | 93 | 1009.3 |
| 20260506100728 | 13 | 42 | 0.0 | 1.6 | 0.00 | 0.00 | 0.00 | 92 | 1009.1 |
| 20260506100226 | 13 | 69 | 0.0 | 1.6 | 0.00 | 0.00 | 0.00 | 92 | 1009.0 |
| 20260506095724 | 13 | 99 | 1.6 | 3.2 | 0.00 | 0.00 | 0.00 | 91 | 1009.1 |
| 20260506095220 | 13 | 40 | 0.0 | 0.0 | 0.00 | 0.00 | 0.00 | 91 | 1008.9 |
| 20260506094717 | 14 | 140 | 1.6 | 1.6 | 0.00 | 0.00 | 0.00 | 90 | 1008.9 |
| 20260506094215 | 14 | 37 | 1.6 | 1.6 | 0.00 | 0.00 | 0.00 | 90 | 1009.0 |
| 20260506093714 | 14 | 113 | 3.2 | 3.2 | 0.00 | 0.00 | 0.00 | 90 | 1008.7 |
| 20260506093210 | 14 | 76 | 0.0 | 1.6 | 0.00 | 0.00 | 0.00 | 89 | 1008.8 |
| 20260506092709 | 14 | 29 | 0.0 | 0.0 | 0.00 | 0.00 | 0.00 | 89 | 1008.9 |
| 20260506092206 | 14 | 127 | 1.6 | 1.6 | 0.00 | 0.00 | 0.00 | 89 | 1008.8 |
| 20260506091704 | 14 | 42 | 0.0 | 0.0 | 0.00 | 0.00 | 0.00 | 89 | 1008.9 |
| 20260506091201 | 14 | 100 | 1.6 | 3.2 | 0.00 | 0.00 | 0.00 | 89 | 1009.0 |
| 20260506090658 | 14 | 326 | 1.6 | 1.6 | 0.00 | 0.00 | 0.00 | 88 | 1008.9 |
| 20260506090154 | 15 | 316 | 3.2 | 3.2 | 0.00 | 0.00 | 0.00 | 88 | 1009.1 |
| 20260506085652 | 15 | 21 | 1.6 | 1.6 | 0.00 | 0.00 | 0.00 | 88 | 1009.0 |
| 20260506085148 | 15 | 178 | 0.0 | 1.6 | 0.00 | 0.00 | 0.00 | 88 | 1009.2 |
| 20260506084645 | 15 | 83 | 3.2 | 3.2 | 0.00 | 0.00 | 0.00 | 88 | 1009.2 |
| 20260506084141 | 15 | 8 | 0.0 | 0.0 | 0.00 | 0.00 | 0.00 | 87 | 1008.9 |
| 20260506083638 | 15 | 18 | 8.0 | 11.3 | 0.00 | 0.00 | 0.00 | 86 | 1009.2 |
| 20260506083136 | 15 | 88 | 1.6 | 1.6 | 0.00 | 0.00 | 0.00 | 87 | 1009.3 |
| 20260506082633 | 15 | 51 | 1.6 | 1.6 | 0.00 | 0.00 | 0.00 | 86 | 1009.0 |
| 20260506082128 | 15 | 237 | 3.2 | 4.8 | 0.00 | 0.00 | 0.00 | 85 | 1009.1 |
| 20260506081626 | 15 | 49 | 0.0 | 0.0 | 0.00 | 0.00 | 0.00 | 85 | 1009.0 |
| 20260506081124 | 15 | 131 | 3.2 | 3.2 | 0.00 | 0.00 | 0.00 | 85 | 1009.2 |
| 20260506080622 | 15 | 267 | 3.2 | 4.8 | 0.00 | 0.00 | 0.00 | 85 | 1009.2 |
| 20260506080118 | 15 | 350 | 1.6 | 1.6 | 0.00 | 0.00 | 0.00 | 84 | 1009.1 |
| 20260506073102 | 15 | 70 | 1.6 | 1.6 | 0.00 | 0.00 | 0.00 | 83 | 1009.1 |
| 20260506072558 | 16 | 213 | 4.8 | 4.8 | 0.00 | 0.00 | 0.00 | 83 | 1009.0 |
| 20260506072056 | 16 | 4 | 3.2 | 3.2 | 0.00 | 0.00 | 0.00 | 83 | 1008.9 |
| 20260506071554 | 15 | 27 | 1.6 | 1.6 | 0.00 | 0.00 | 0.00 | 83 | 1008.9 |
| 20260506071051 | 15 | 84 | 1.6 | 3.2 | 0.00 | 0.00 | 0.00 | 83 | 1009.0 |
| 20260506070548 | 15 | 206 | 3.2 | 3.2 | 0.00 | 0.00 | 0.00 | 83 | 1009.1 |
| 20260506062022 | 15 | 73 | 3.2 | 3.2 | 0.00 | 0.00 | 0.00 | 82 | 1008.8 |
| 20260506061518 | 15 | 106 | 3.2 | 4.8 | 0.00 | 0.00 | 0.00 | 82 | 1008.9 |
| 20260506061016 | 15 | 297 | 9.7 | 14.5 | 0.00 | 0.00 | 0.00 | 81 | 1008.7 |
| 20260506060514 | 16 | 86 | 3.2 | 3.2 | 0.00 | 0.00 | 0.00 | 81 | 1008.8 |
| 20260506050943 | 16 | 56 | 1.6 | 1.6 | 0.00 | 0.00 | 0.00 | 78 | 1009.5 |
| 20260506050441 | 16 | 92 | 0.0 | 1.6 | 0.00 | 0.00 | 0.00 | 78 | 1009.5 |
| 20260506044931 | 16 | 94 | 0.0 | 1.6 | 0.00 | 0.00 | 0.00 | 77 | 1009.7 |
| 20260506044430 | 16 | 67 | 1.6 | 3.2 | 0.00 | 0.00 | 0.00 | 77 | 1009.7 |
| 20260506043926 | 16 | 121 | 1.6 | 3.2 | 0.00 | 0.00 | 0.00 | 77 | 1009.6 |
| 20260506043423 | 16 | 269 | 3.2 | 3.2 | 0.00 | 0.00 | 0.00 | 76 | 1009.6 |
| 20260506042921 | 16 | 280 | 3.2 | 3.2 | 0.00 | 0.00 | 0.00 | 76 | 1009.4 |
| 20260506042420 | 16 | 232 | 4.8 | 4.8 | 0.00 | 0.00 | 0.00 | 75 | 1009.7 |
| 20260506041918 | 16 | 105 | 1.6 | 3.2 | 0.00 | 0.00 | 0.00 | 76 | 1009.5 |
| 20260506041415 | 16 | 88 | 1.6 | 1.6 | 0.00 | 0.00 | 0.00 | 75 | 1009.5 |
| 20260506040912 | 16 | 92 | 3.2 | 4.8 | 0.00 | 0.00 | 0.00 | 75 | 1009.6 |
| 20260506040410 | 16 | 74 | 1.6 | 3.2 | 0.00 | 0.00 | 0.00 | 74 | 1009.6 |
| 20260506035905 | 16 | 253 | 1.6 | 3.2 | 0.00 | 0.00 | 0.00 | 73 | 1009.6 |
| 20260506035403 | 16 | 99 | 1.6 | 1.6 | 0.00 | 0.00 | 0.00 | 73 | 1009.6 |
| 20260506034900 | 16 | 162 | 1.6 | 1.6 | 0.00 | 0.00 | 0.00 | 73 | 1009.4 |
| 20260506034358 | 16 | 91 | 1.6 | 1.6 | 0.00 | 0.00 | 0.00 | 73 | 1009.5 |
| 20260506033854 | 16 | 95 | 3.2 | 3.2 | 0.00 | 0.00 | 0.00 | 73 | 1009.3 |
| 20260506033351 | 16 | 35 | 1.6 | 1.6 | 0.00 | 0.00 | 0.00 | 72 | 1009.4 |
| 20260506032848 | 16 | 18 | 3.2 | 8.0 | 0.00 | 0.00 | 0.00 | 72 | 1009.4 |
| 20260506032345 | 16 | 72 | 1.6 | 3.2 | 0.00 | 0.00 | 0.00 | 71 | 1009.5 |
| 20260506031842 | 16 | 217 | 3.2 | 3.2 | 0.00 | 0.00 | 0.00 | 70 | 1009.4 |
| 20260506031339 | 17 | 96 | 4.8 | 8.0 | 0.00 | 0.00 | 0.00 | 70 | 1009.5 |
| 20260506030837 | 16 | 94 | 1.6 | 3.2 | 0.00 | 0.00 | 0.00 | 70 | 1009.1 |
| 20260506030335 | 16 | 79 | 3.2 | 4.8 | 0.00 | 0.00 | 0.00 | 70 | 1009.2 |
| 20260506025831 | 17 | 89 | 0.0 | 1.6 | 0.00 | 0.00 | 0.00 | 70 | 1009.1 |
| 20260506025327 | 16 | 100 | 1.6 | 3.2 | 0.00 | 0.00 | 0.00 | 70 | 1009.3 |
| 20260506024825 | 16 | 108 | 1.6 | 3.2 | 0.00 | 0.00 | 0.00 | 71 | 1009.2 |
| 20260506024321 | 16 | 97 | 1.6 | 1.6 | 0.00 | 0.00 | 0.00 | 70 | 1009.2 |
| 20260506023818 | 16 | 134 | 3.2 | 3.2 | 0.00 | 0.00 | 0.00 | 70 | 1009.2 |
| 20260506023315 | 16 | 81 | 4.8 | 8.0 | 0.00 | 0.00 | 0.00 | 69 | 1009.2 |
| 20260506022811 | 16 | 108 | 4.8 | 4.8 | 0.00 | 0.00 | 0.00 | 70 | 1009.2 |
| 20260506022309 | 17 | 98 | 4.8 | 4.8 | 0.00 | 0.00 | 0.00 | 69 | 1009.4 |
| 20260506021807 | 17 | 61 | 4.8 | 4.8 | 0.00 | 0.00 | 0.00 | 69 | 1009.3 |